STARLINK-1132, 45044

Orbit data source: Space-Track

STARLINK-1132, 45044 is a payload satellite owned by SpaceX/Seattle (US) in LEO that was launched on Wed, 29 Jan 2020 UTC via an FALCON 9 launch vehicle from the Air Force Eastern Test Range (AFETR). Payload-class satellites include a variety of spacecraft equipped with specific instruments for various scientific and technological missions. These include communications satellites like Starlink; space stations such as the ISS; scientific satellites like the Hubble; Earth observation satellites from companies like Planet Labs, Umbra, and HawkEye 360; GPS; miniature CubeSats for education and research; and military/defense satellites.

Loading next visibility...
Identifier
45044, 2020-006A
Orbit
LEO
Country
Flag of USUS
Related business
Manufacturer
SpaceX/Seattle
Mission
Partially operational Commercial Communications
Bus & Motor
STARLINK, Unknown motor
Mass
260 kg wet, ~248 kg dry
Launch date (UTC)
2020-01-29 (6 years ago)
Launch vehicle
FALCON 9
Launch site
Air Force Eastern Test Range (AFETR)
Object type
Payload
Rocket body
Debris
Shape & HBR
Box + 1 Pan, 10.1 m
Radar Cross Section
13.562 m², Large (>1 m²)

Expand to show TLE details & history
Last TLE update: 11 hours ago

TLE from 11 hours ago
0 STARLINK-1132
1 45044U 20006A   26124.34550691  .00068391  00000-0  11579-2 0  9995
2 45044  53.1543 348.7303 0002626 103.7082 256.4221 15.50947634345542
Epoch: 2026-05-04T08:17Z
TLE epoch observation values (Epoch: 2026-05-04T08:17:31.797Z)
Latitude
0.00007°
Longitude
2.11183°
Altitude
415.284 km
Speed
7.663 km/s
True Right ascension
23h 14m 55s
True Declination
0° 00' 00"
Sunlit
Object was in daylight at epoch
Visualization orbit readout
Latitude
Unknown
Longitude
Unknown
Altitude
Unknown
Speed
Unknown
Apparent Right ascension
Unknown
Apparent Declination
Unknown
Sunlit
N/A
Visualization observer readout
Local Sidereal Time
02:57:49
Azimuth
Unknown
Elevation
Unknown
Doppler factor
Unknown
Orbital elements
Apogee altitude
416.001 km
Perigee altitude
412.434 km
Semi-major axis
6,792.355 km
Eccentricity
0.00026
Inclination
53.1543°
RAAN
348.7303°
Arg. of periapsis
103.7082°
True anomaly
256.39285°
Mean anomaly
256.4221°
Eccentric anomaly
256.40748°
Mean motion
3.87715 °/min
Orbital period
92.85 mins
BSTAR
0.0011579
Loading maneuver chart data...
Computing Atmospheric mass density...
Loading historical data...
Loading historical data...
Loading historical data...
Loading historical data...
Loading historical data...
Loading historical data...
Loading historical data...

Documentation

Showing up to 5 results
|